NDF78C EDDH-LEPA

Flight info

Callsign NDF78C
Flight time 2h 21m
Altitude 23000
Route IDEKO8B IDEKO N850 XAROL/N0447F340 DCT BOMBI/N0448F360 DCT GIGET DCT ABUKA DCT KRH DCT NATOR/N0450F350 DCT LUTIX DCT BENOT DCT NEMOS DCT GEVEA DCT INCUS DCT BALSI DCT RETNO DCT TUPOX DCT MTG DCT DIVKO DCT VATIR N852 VERSO L129 LUNIK LUNIK3P
Aircraft A320/M-SDE3FGHIRWY/LB1

Departure

Time 2026-05-04 10:09
Airport Hamburg Helmut Schmidt Airport (EDDH)

Arrival

Time 2026-05-04 12:30
Airport Palma de Mallorca Airport (LEPA)
Time Latitude Longitude Altitude Speed Heading
2026-05-04 09:29 53.63372 10.00342 48 ft 0 kts 86°
2026-05-04 10:00 53.63372 10.00337 48 ft 3 kts 86°
2026-05-04 10:00 53.63370 10.00293 43 ft 4 kts 82°
2026-05-04 10:02 53.63349 10.00222 46 ft 0 kts 356°
2026-05-04 10:04 53.63369 10.00222 48 ft 7 kts
2026-05-04 10:04 53.63410 10.00221 48 ft 5 kts 358°
2026-05-04 10:04 53.63442 10.00219 47 ft 4 kts 357°
2026-05-04 10:05 53.63468 10.00207 48 ft 6 kts 335°
2026-05-04 10:05 53.63502 10.00165 48 ft 5 kts 321°
2026-05-04 10:05 53.63526 10.00132 49 ft 3 kts 321°
2026-05-04 10:05 53.63531 10.00126 49 ft 0 kts 320°
2026-05-04 10:06 53.63542 10.00109 50 ft 0 kts 320°
2026-05-04 10:08 53.63594 9.99958 52 ft 12 kts 251°
2026-05-04 10:08 53.63561 9.99884 51 ft 0 kts 230°
2026-05-04 10:08 53.63557 9.99875 51 ft 11 kts 230°
2026-05-04 10:08 53.63329 9.99418 47 ft 87 kts 230°
2026-05-04 10:09 53.62819 9.98379 44 ft 141 kts 230°
2026-05-04 10:09 53.62124 9.96949 293 ft 162 kts 231°
2026-05-04 10:09 53.61424 9.95488 982 ft 160 kts 232°
2026-05-04 10:09 53.60727 9.94009 1644 ft 162 kts 232°
2026-05-04 10:10 53.60033 9.92514 2272 ft 162 kts 232°
2026-05-04 10:10 53.59304 9.90967 2727 ft 178 kts 231°
2026-05-04 10:10 53.58461 9.89274 3048 ft 200 kts 230°
2026-05-04 10:10 53.57517 9.87392 3394 ft 220 kts 230°
2026-05-04 10:11 53.56528 9.85407 4138 ft 223 kts 230°
2026-05-04 10:11 53.55486 9.83296 4553 ft 246 kts 231°
2026-05-04 10:11 53.54349 9.80983 5042 ft 264 kts 231°
2026-05-04 10:11 53.53173 9.78575 5835 ft 269 kts 231°
2026-05-04 10:12 53.51978 9.76122 6683 ft 273 kts 231°
2026-05-04 10:12 53.50768 9.73638 7513 ft 276 kts 231°
2026-05-04 10:12 53.49542 9.71125 8348 ft 280 kts 231°
2026-05-04 10:12 53.48302 9.68588 9141 ft 283 kts 231°
2026-05-04 10:13 53.47045 9.66017 9911 ft 287 kts 231°
2026-05-04 10:13 53.45762 9.63394 10500 ft 299 kts 231°
2026-05-04 10:13 53.44392 9.60593 10735 ft 322 kts 231°
2026-05-04 10:13 53.42920 9.57584 10987 ft 342 kts 230°
2026-05-04 10:14 53.41148 9.54861 11578 ft 350 kts 214°
2026-05-04 10:14 53.38958 9.53038 12250 ft 355 kts 198°
2026-05-04 10:16 53.21258 9.49294 16677 ft 379 kts 187°
2026-05-04 10:16 53.18629 9.48775 17254 ft 382 kts 187°
2026-05-04 10:16 53.15974 9.48254 17818 ft 385 kts 187°
2026-05-04 10:16 53.13302 9.47737 18373 ft 389 kts 187°
2026-05-04 10:17 53.10604 9.47218 18918 ft 392 kts 187°
2026-05-04 10:17 53.07880 9.46692 19461 ft 395 kts 187°
2026-05-04 10:19 52.88263 9.42688 22835 ft 416 kts 188°
2026-05-04 10:19 52.85390 9.42059 22980 ft 418 kts 188°
2026-05-04 10:19 52.82494 9.41434 23009 ft 421 kts 187°
2026-05-04 10:19 52.79587 9.40813 23009 ft 421 kts 187°
2026-05-04 10:20 52.76679 9.40195 23009 ft 422 kts 187°
2026-05-04 10:20 52.73808 9.39586 23009 ft 422 kts 187°
2026-05-04 10:20 52.70897 9.38974 23009 ft 422 kts 187°
2026-05-04 10:20 52.67986 9.38363 23009 ft 422 kts 187°
2026-05-04 10:21 52.65077 9.37751 23009 ft 422 kts 187°
2026-05-04 10:21 52.62169 9.37134 23008 ft 422 kts 188°
2026-05-04 10:21 52.59257 9.36447 23010 ft 422 kts 189°
2026-05-04 10:21 52.56360 9.35692 23009 ft 422 kts 189°
2026-05-04 10:22 52.50570 9.34101 23009 ft 422 kts 189°
2026-05-04 10:22 52.47678 9.33310 23007 ft 421 kts 189°
2026-05-04 10:22 52.44785 9.32536 23006 ft 421 kts 189°
2026-05-04 10:23 52.41892 9.31776 23004 ft 421 kts 189°
2026-05-04 10:23 52.38997 9.31024 23002 ft 421 kts 189°
2026-05-04 10:25 52.18753 9.25959 22996 ft 422 kts 187°
2026-05-04 10:25 52.15835 9.25448 22998 ft 422 kts 186°
2026-05-04 10:25 52.12916 9.24975 22999 ft 422 kts 186°
2026-05-04 10:25 52.09992 9.24502 23001 ft 424 kts 186°
2026-05-04 10:26 52.07023 9.24001 23116 ft 434 kts 186°
2026-05-04 10:26 52.03987 9.23445 23245 ft 443 kts 187°
2026-05-04 10:26 52.00909 9.22740 23371 ft 450 kts 189°
2026-05-04 10:26 51.97799 9.21913 23497 ft 456 kts 190°
2026-05-04 10:27 51.94653 9.21016 23622 ft 462 kts 190°
2026-05-04 10:27 51.91470 9.20104 23748 ft 467 kts 190°
2026-05-04 10:27 51.88252 9.19211 23874 ft 471 kts 189°
2026-05-04 10:27 51.85005 9.18395 24045 ft 473 kts 188°
2026-05-04 10:28 51.81743 9.17670 24293 ft 473 kts 187°
2026-05-04 10:28 51.78481 9.17000 24558 ft 473 kts 187°
2026-05-04 10:28 51.75214 9.16347 24821 ft 473 kts 187°
2026-05-04 10:28 51.71952 9.15689 25100 ft 472 kts 187°
2026-05-04 10:29 51.68697 9.15012 25388 ft 471 kts 187°
2026-05-04 10:29 51.65494 9.14328 25669 ft 471 kts 188°
2026-05-04 10:29 51.62249 9.13621 25957 ft 470 kts 188°
2026-05-04 10:29 51.59013 9.12908 26246 ft 470 kts 188°
2026-05-04 10:30 51.55776 9.12198 26532 ft 469 kts 188°
2026-05-04 10:30 51.52540 9.11496 26818 ft 469 kts 188°
2026-05-04 10:30 51.49314 9.10761 27111 ft 468 kts 189°
2026-05-04 10:30 51.46106 9.09846 27403 ft 468 kts 191°
2026-05-04 10:31 51.42928 9.08777 27689 ft 467 kts 193°
2026-05-04 10:31 51.39763 9.07616 27982 ft 466 kts 193°
2026-05-04 10:32 51.20651 9.02190 29696 ft 464 kts 186°
2026-05-04 10:33 51.17481 9.01691 29991 ft 463 kts 186°
2026-05-04 10:33 51.14239 9.01152 30274 ft 463 kts 186°
2026-05-04 10:33 51.11080 9.00578 30549 ft 463 kts 187°
2026-05-04 10:33 51.07886 8.99954 30814 ft 463 kts 187°
2026-05-04 10:34 51.04695 8.99303 31080 ft 462 kts 187°
2026-05-04 10:34 51.01510 8.98647 31364 ft 461 kts 187°
2026-05-04 10:34 50.98327 8.97995 31646 ft 460 kts 187°
2026-05-04 10:34 50.95151 8.97357 31935 ft 459 kts 187°
2026-05-04 10:35 50.91983 8.96732 32215 ft 459 kts 187°
2026-05-04 10:35 50.88816 8.96114 32489 ft 458 kts 187°
2026-05-04 10:35 50.85657 8.95497 32750 ft 458 kts 187°
2026-05-04 10:35 50.82496 8.94878 33010 ft 457 kts 187°
2026-05-04 10:36 50.79343 8.94263 33275 ft 456 kts 187°
2026-05-04 10:36 50.76196 8.93649 33542 ft 455 kts 187°
2026-05-04 10:36 50.73055 8.93034 33790 ft 455 kts 187°
2026-05-04 10:36 50.69911 8.92416 34025 ft 455 kts 187°
2026-05-04 10:37 50.66770 8.91798 34266 ft 455 kts 187°
2026-05-04 10:37 50.63633 8.91183 34521 ft 454 kts 187°
2026-05-04 10:37 50.60499 8.90572 34769 ft 453 kts 187°
2026-05-04 10:37 50.57366 8.89965 34965 ft 454 kts 187°
2026-05-04 10:39 50.35557 8.85739 35009 ft 451 kts 187°
2026-05-04 10:40 50.29408 8.84557 35009 ft 451 kts 187°
2026-05-04 10:40 50.23180 8.83363 35008 ft 451 kts 187°
2026-05-04 10:41 50.16946 8.82176 35011 ft 451 kts 187°
2026-05-04 10:41 50.10709 8.80990 35015 ft 452 kts 187°
2026-05-04 10:42 50.04474 8.79806 35008 ft 451 kts 187°
2026-05-04 10:42 49.98242 8.78536 35007 ft 451 kts 188°
2026-05-04 10:43 49.92019 8.77206 35006 ft 452 kts 188°
2026-05-04 10:45 49.67117 8.72062 35002 ft 452 kts 187°
2026-05-04 10:45 49.60877 8.70799 35001 ft 453 kts 188°
2026-05-04 10:46 49.54632 8.69531 35015 ft 452 kts 188°
2026-05-04 10:46 49.48391 8.68279 35006 ft 452 kts 187°
2026-05-04 10:47 49.42150 8.67044 35007 ft 452 kts 187°
2026-05-04 10:47 49.35915 8.65793 35018 ft 452 kts 188°
2026-05-04 10:49 49.11029 8.60767 35011 ft 452 kts 188°
2026-05-04 10:50 49.04800 8.59522 35008 ft 452 kts 187°
2026-05-04 10:52 48.81199 8.52535 35002 ft 452 kts 193°
2026-05-04 10:52 48.75039 8.50527 34993 ft 453 kts 192°
2026-05-04 10:54 48.50283 8.42662 35002 ft 455 kts 192°
2026-05-04 10:56 48.25528 8.34815 35017 ft 455 kts 192°
2026-05-04 10:57 48.19343 8.32787 35017 ft 455 kts 197°
2026-05-04 10:57 48.13612 8.28863 35008 ft 454 kts 213°
2026-05-04 10:58 48.08310 8.23720 35000 ft 455 kts 213°
2026-05-04 10:58 48.02988 8.18601 34997 ft 455 kts 213°
2026-05-04 10:59 47.97650 8.13477 35002 ft 456 kts 213°
2026-05-04 10:59 47.92317 8.08365 35003 ft 456 kts 213°
2026-05-04 11:00 47.86969 8.03254 35007 ft 456 kts 213°
2026-05-04 11:02 47.65582 7.82956 35026 ft 456 kts 213°
2026-05-04 11:05 47.25964 7.45823 35004 ft 455 kts 212°
2026-05-04 11:06 47.20633 7.40888 35007 ft 456 kts 212°
2026-05-04 11:06 47.15628 7.35234 35021 ft 454 kts 227°
2026-05-04 11:10 46.87223 6.85907 35018 ft 453 kts 219°
2026-05-04 11:12 46.67696 6.62733 35012 ft 454 kts 219°
2026-05-04 11:12 46.62799 6.56940 35009 ft 454 kts 219°
2026-05-04 11:13 46.57895 6.51157 35012 ft 453 kts 219°
2026-05-04 11:13 46.55484 6.48321 35002 ft 438 kts 219°
2026-05-04 11:13 46.53152 6.45586 35010 ft 425 kts 219°
2026-05-04 11:14 46.52409 6.44715 35008 ft 423 kts 219°
2026-05-04 11:16 46.30595 6.19250 35013 ft 416 kts 219°
2026-05-04 11:16 46.25810 6.14587 35004 ft 416 kts 205°
2026-05-04 11:17 46.20312 6.12084 34999 ft 416 kts 189°
2026-05-04 11:19 45.97424 6.07013 34991 ft 418 kts 189°
2026-05-04 11:19 45.91677 6.05737 34994 ft 418 kts 189°
2026-05-04 11:20 45.85929 6.04472 35003 ft 418 kts 189°
2026-05-04 11:20 45.80183 6.03207 35006 ft 418 kts 189°
2026-05-04 11:22 45.57157 5.98135 34999 ft 420 kts 189°
2026-05-04 11:23 45.51390 5.96880 35015 ft 419 kts 189°
2026-05-04 11:25 45.31631 5.91055 35038 ft 412 kts 193°
2026-05-04 11:25 45.26043 5.89286 35040 ft 410 kts 193°
2026-05-04 11:27 45.01097 5.81589 35003 ft 408 kts 192°
2026-05-04 11:28 44.95581 5.79891 34991 ft 409 kts 192°
2026-05-04 11:28 44.89999 5.78170 34986 ft 411 kts 192°
2026-05-04 11:29 44.84400 5.76449 34990 ft 412 kts 192°
2026-05-04 11:29 44.78791 5.74729 34994 ft 413 kts 192°
2026-05-04 11:33 44.39396 5.62774 35001 ft 414 kts 193°
2026-05-04 11:33 44.33962 5.60132 35004 ft 413 kts 202°
2026-05-04 11:34 44.28611 5.57184 34999 ft 414 kts 201°
2026-05-04 11:34 44.23243 5.54253 35003 ft 415 kts 201°
2026-05-04 11:35 44.17870 5.51323 35008 ft 414 kts 201°
2026-05-04 11:35 44.12499 5.48393 35002 ft 414 kts 201°
2026-05-04 11:36 44.07164 5.45499 35008 ft 414 kts 201°
2026-05-04 11:36 44.01795 5.42592 35008 ft 414 kts 201°
2026-05-04 11:37 43.96428 5.39683 35010 ft 414 kts 201°
2026-05-04 11:37 43.91073 5.36788 35026 ft 410 kts 201°
2026-05-04 11:38 43.85845 5.33965 35014 ft 400 kts 201°
2026-05-04 11:38 43.80671 5.31170 35007 ft 399 kts 201°
2026-05-04 11:39 43.75498 5.28380 35012 ft 399 kts 201°
2026-05-04 11:41 43.57441 5.18700 35013 ft 398 kts 201°
2026-05-04 11:41 43.52269 5.15939 35020 ft 398 kts 201°
2026-05-04 11:42 43.47103 5.13187 35016 ft 398 kts 201°
2026-05-04 11:42 43.41937 5.10447 35019 ft 397 kts 201°
2026-05-04 11:43 43.36985 5.07134 35017 ft 396 kts 214°
2026-05-04 11:43 43.32474 5.02859 35012 ft 396 kts 215°
2026-05-04 11:44 43.27928 4.98579 35010 ft 396 kts 214°
2026-05-04 11:44 43.23380 4.94316 35008 ft 396 kts 214°
2026-05-04 11:45 43.18832 4.90043 35002 ft 396 kts 214°
2026-05-04 11:45 43.14284 4.85784 35009 ft 396 kts 214°
2026-05-04 11:46 43.09721 4.81523 35004 ft 396 kts 214°
2026-05-04 11:46 43.05142 4.77331 35005 ft 396 kts 210°
2026-05-04 11:47 43.00349 4.73692 35004 ft 396 kts 209°
2026-05-04 11:47 42.95525 4.70045 34999 ft 396 kts 209°
2026-05-04 11:48 42.90713 4.66395 34998 ft 396 kts 209°
2026-05-04 11:48 42.85893 4.62749 34995 ft 396 kts 209°
2026-05-04 11:49 42.81076 4.59118 34999 ft 396 kts 209°
2026-05-04 11:49 42.76256 4.55495 34992 ft 396 kts 209°
2026-05-04 11:50 42.71466 4.51898 34991 ft 396 kts 209°
2026-05-04 11:50 42.66655 4.48288 35022 ft 393 kts 209°
2026-05-04 11:51 42.61886 4.44715 35035 ft 390 kts 209°
2026-05-04 11:51 42.57155 4.41170 35034 ft 387 kts 209°
2026-05-04 11:52 42.53229 4.38242 35029 ft 386 kts 209°
2026-05-04 11:52 42.48527 4.34743 35022 ft 385 kts 209°
2026-05-04 11:53 42.43836 4.31245 35018 ft 385 kts 209°
2026-05-04 11:53 42.38382 4.27193 35009 ft 385 kts 209°
2026-05-04 11:55 42.20398 4.13899 35004 ft 384 kts 209°
2026-05-04 11:56 42.15706 4.10449 34997 ft 384 kts 209°
2026-05-04 11:56 42.11015 4.06994 34997 ft 384 kts 209°
2026-05-04 11:57 42.06322 4.03546 34995 ft 384 kts 209°
2026-05-04 11:57 42.01625 4.00102 34996 ft 384 kts 209°
2026-05-04 11:58 41.96925 3.96667 35000 ft 384 kts 208°
2026-05-04 11:58 41.92126 3.93618 34993 ft 384 kts 198°
2026-05-04 11:59 41.86909 3.92087 34992 ft 385 kts 190°
2026-05-04 11:59 41.81631 3.90877 34996 ft 385 kts 190°
2026-05-04 12:00 41.76353 3.89661 34994 ft 385 kts 190°
2026-05-04 12:00 41.71070 3.88444 34995 ft 385 kts 190°
2026-05-04 12:01 41.65786 3.87229 34996 ft 385 kts 190°
2026-05-04 12:02 41.47290 3.82989 35003 ft 385 kts 190°
2026-05-04 12:03 41.42006 3.81777 35003 ft 385 kts 190°
2026-05-04 12:03 41.36719 3.80568 35008 ft 385 kts 190°
2026-05-04 12:04 41.31469 3.79368 35000 ft 385 kts 190°
2026-05-04 12:04 41.26177 3.78164 35001 ft 385 kts 190°
2026-05-04 12:05 41.20889 3.76966 35001 ft 386 kts 190°
2026-05-04 12:05 41.15616 3.75674 35004 ft 385 kts 195°
2026-05-04 12:06 41.13072 3.74567 34901 ft 387 kts 201°
2026-05-04 12:06 41.10549 3.73269 34501 ft 387 kts 201°
2026-05-04 12:06 41.08041 3.71969 34252 ft 387 kts 201°
2026-05-04 12:06 41.05534 3.70669 34001 ft 387 kts 201°
2026-05-04 12:07 41.03028 3.69374 33746 ft 387 kts 201°
2026-05-04 12:07 41.00519 3.68082 33502 ft 387 kts 201°
2026-05-04 12:07 40.98005 3.66788 33247 ft 388 kts 201°
2026-05-04 12:07 40.95490 3.65495 33003 ft 388 kts 201°
2026-05-04 12:08 40.92971 3.64204 32754 ft 389 kts 201°
2026-05-04 12:08 40.90450 3.62908 32505 ft 389 kts 201°
2026-05-04 12:08 40.87924 3.61610 32253 ft 389 kts 201°
2026-05-04 12:08 40.85427 3.60329 32008 ft 390 kts 201°
2026-05-04 12:09 40.82898 3.59036 31758 ft 390 kts 201°
2026-05-04 12:09 40.80362 3.57742 31508 ft 391 kts 201°
2026-05-04 12:09 40.77824 3.56448 31260 ft 391 kts 201°
2026-05-04 12:09 40.75281 3.55152 31004 ft 392 kts 201°
2026-05-04 12:10 40.72711 3.53845 30209 ft 400 kts 201°
2026-05-04 12:10 40.70134 3.52535 29912 ft 393 kts 201°
2026-05-04 12:10 40.67622 3.51255 29765 ft 382 kts 201°
2026-05-04 12:10 40.65184 3.50011 29635 ft 370 kts 201°
2026-05-04 12:11 40.62809 3.48799 29405 ft 363 kts 201°
2026-05-04 12:11 40.60469 3.47608 29045 ft 359 kts 201°
2026-05-04 12:11 40.58150 3.46432 28658 ft 356 kts 201°
2026-05-04 12:11 40.55850 3.45265 28253 ft 353 kts 201°
2026-05-04 12:12 40.53567 3.44108 27852 ft 351 kts 201°
2026-05-04 12:12 40.51295 3.42960 27439 ft 348 kts 201°
2026-05-04 12:12 40.49038 3.41819 27032 ft 346 kts 201°
2026-05-04 12:12 40.46798 3.40690 26626 ft 344 kts 200°
2026-05-04 12:13 40.44513 3.39820 26180 ft 340 kts 191°
2026-05-04 12:14 40.28569 3.40127 21619 ft 317 kts 178°
2026-05-04 12:15 40.26375 3.40252 21007 ft 314 kts 178°
2026-05-04 12:15 40.24195 3.40378 20400 ft 311 kts 178°
2026-05-04 12:15 40.22041 3.40502 19801 ft 308 kts 178°
2026-05-04 12:15 40.19907 3.40625 19211 ft 306 kts 178°
2026-05-04 12:16 40.17792 3.40743 18626 ft 303 kts 178°
2026-05-04 12:16 40.15688 3.40860 18162 ft 302 kts 178°
2026-05-04 12:16 40.13597 3.40975 17841 ft 298 kts 178°
2026-05-04 12:16 40.11514 3.41088 17765 ft 301 kts 178°
2026-05-04 12:17 40.09439 3.41204 17634 ft 294 kts 178°
2026-05-04 12:17 40.07418 3.41319 17490 ft 287 kts 178°
2026-05-04 12:17 40.05421 3.41432 17384 ft 286 kts 178°
2026-05-04 12:17 40.03458 3.41545 17262 ft 286 kts 178°
2026-05-04 12:18 40.01461 3.41658 16900 ft 291 kts 178°
2026-05-04 12:18 39.99448 3.41773 16669 ft 286 kts 178°
2026-05-04 12:18 39.97473 3.41886 16441 ft 282 kts 178°
2026-05-04 12:18 39.95519 3.41998 16163 ft 280 kts 178°
2026-05-04 12:19 39.93576 3.42108 15883 ft 279 kts 178°
2026-05-04 12:19 39.91644 3.42201 15598 ft 277 kts 182°
2026-05-04 12:19 39.89787 3.41715 15313 ft 274 kts 205°
2026-05-04 12:19 39.88221 3.40307 15014 ft 272 kts 229°
2026-05-04 12:20 39.87111 3.38331 14700 ft 271 kts 236°
2026-05-04 12:20 39.86055 3.36300 14400 ft 271 kts 236°
2026-05-04 12:20 39.84995 3.34265 13918 ft 277 kts 236°
2026-05-04 12:20 39.83905 3.32173 13615 ft 276 kts 236°
2026-05-04 12:21 39.82848 3.30149 13484 ft 265 kts 236°
2026-05-04 12:21 39.81830 3.28204 13352 ft 255 kts 236°
2026-05-04 12:21 39.80852 3.26337 13224 ft 242 kts 236°
2026-05-04 12:21 39.79949 3.24611 13086 ft 226 kts 236°
2026-05-04 12:22 39.79093 3.22979 12969 ft 213 kts 236°
2026-05-04 12:22 39.78276 3.21420 12825 ft 205 kts 236°
2026-05-04 12:22 39.77452 3.19847 12312 ft 216 kts 236°
2026-05-04 12:22 39.76582 3.18189 11787 ft 228 kts 236°
2026-05-04 12:23 39.75671 3.16454 11292 ft 235 kts 236°
2026-05-04 12:23 39.74762 3.14725 10811 ft 230 kts 236°
2026-05-04 12:23 39.73864 3.13017 10261 ft 227 kts 236°
2026-05-04 12:23 39.72972 3.11321 9657 ft 227 kts 236°
2026-05-04 12:24 39.72083 3.09632 9075 ft 225 kts 236°
2026-05-04 12:24 39.71202 3.07960 8512 ft 224 kts 236°
2026-05-04 12:24 39.70438 3.06508 8114 ft 218 kts 236°
2026-05-04 12:24 39.69583 3.04886 7534 ft 218 kts 236°
2026-05-04 12:25 39.68725 3.03260 6958 ft 218 kts 236°
2026-05-04 12:25 39.67773 3.01731 6404 ft 217 kts 230°
2026-05-04 12:25 39.66871 3.00177 5859 ft 215 kts 237°
2026-05-04 12:25 39.66071 2.98546 5334 ft 213 kts 238°
2026-05-04 12:26 39.65300 2.96908 4825 ft 212 kts 239°
2026-05-04 12:26 39.64539 2.95285 4288 ft 210 kts 239°
2026-05-04 12:26 39.63779 2.93666 3837 ft 210 kts 239°
2026-05-04 12:26 39.63027 2.92064 3441 ft 204 kts 239°
2026-05-04 12:27 39.62303 2.90514 2914 ft 198 kts 240°
2026-05-04 12:27 39.61615 2.89032 2550 ft 183 kts 239°
2026-05-04 12:27 39.60986 2.87701 2358 ft 161 kts 238°
2026-05-04 12:27 39.60411 2.86521 2244 ft 150 kts 238°
2026-05-04 12:28 39.59856 2.85404 2026 ft 145 kts 237°
2026-05-04 12:28 39.59319 2.84306 1835 ft 144 kts 239°
2026-05-04 12:28 39.58808 2.83200 1612 ft 143 kts 239°
2026-05-04 12:28 39.58288 2.82108 1359 ft 142 kts 238°
2026-05-04 12:29 39.57771 2.81022 1117 ft 141 kts 238°
2026-05-04 12:29 39.57267 2.79932 902 ft 141 kts 239°
2026-05-04 12:29 39.56777 2.78858 639 ft 140 kts 239°
2026-05-04 12:29 39.56278 2.77776 407 ft 139 kts 239°
2026-05-04 12:30 39.55786 2.76693 180 ft 139 kts 239°
2026-05-04 12:30 39.55285 2.75630 39 ft 134 kts 238°
2026-05-04 12:30 39.54952 2.74920 38 ft 55 kts 239°
2026-05-04 12:30 39.54812 2.74511 38 ft 45 kts 259°
2026-05-04 12:31 39.54802 2.74297 38 ft 0 kts 267°
2026-05-04 12:31 39.54802 2.74291 38 ft 4 kts 267°
2026-05-04 12:31 39.54800 2.74235 38 ft 7 kts 270°
2026-05-04 12:32 39.54833 2.74129 38 ft 15 kts 312°
2026-05-04 12:32 39.54930 2.73967 38 ft 4 kts 257°
2026-05-04 12:32 39.54950 2.73920 37 ft 11 kts 321°
2026-05-04 12:33 39.55000 2.73881 38 ft 6 kts 330°
2026-05-04 12:33 39.55035 2.73854 38 ft 5 kts 328°
2026-05-04 12:33 39.55068 2.73827 38 ft 6 kts 327°
2026-05-04 12:33 39.55088 2.73799 38 ft 3 kts 268°
2026-05-04 12:34 39.55084 2.73760 38 ft 7 kts 258°
2026-05-04 12:34 39.55062 2.73710 38 ft 6 kts 240°
2026-05-04 12:34 39.55053 2.73692 38 ft 0 kts 238°